Norfolk, NE

4:39 AM CDT on June 28, 2017 (GMT -0500)
Stefan Memorial

Weather History for KOFK - November, 2014

Change the Weather History Date:

Monday, November 3, 2014

  Actual Average Record
Temperature  
Mean Temperature 48 °F 43 °F  
Max Temperature 57 °F 55 °F 81 °F (1909)
Min Temperature 38 °F 32 °F -2 °F (1991)
Degree Days  
Heating Degree Days 17 22  
Month to date heating degree days 53 64  
Since 1 July heating degree days 556 649  
Cooling Degree Days 0 0  
Month to date cooling degree days 0 0  
Year to date cooling degree days 812 915  
Moisture  
Dew Point 43 °F    
Average Humidity 73    
Maximum Humidity 86    
Minimum Humidity 59    
Precipitation  
Precipitation T in 0.05 in 0.83 in (2003)
Month to date precipitation T 0.15  
Year to date precipitation 28.19 25.44  
Snow  
Snow 0.00 in 0.10 in - ()
Month to date snowfall 0.0 0.3  
Since 1 July snowfall 0.0 1.1  
Snow Depth 0.00 in    
Sea Level Pressure  
Sea Level Pressure 29.86 in    
Wind  
Wind Speed 11 mph (West)    
Max Wind Speed 26 mph    
Max Gust Speed 33 mph    
Visibility 10 miles    
Events Rain    
T = Trace of Precipitation, MM = Missing Value Source: NWS Daily Summary

Daily Weather History Graph

Daily Weather History Graph

Search for Another Location

Airport or City:

Trip Planner

Search our weather history database for the weather conditions in past years. The results will help you decide how hot, cold, wet, or windy it might be!

Date:

Astronomy

Nov. 03, 2014 Rise Set
Actual Time 7:04 AM CST 5:21 PM CST
Civil Twilight 6:35 AM CST 5:50 PM CST
Nautical Twilight 6:02 AM CST 6:23 PM CST
Astronomical Twilight 5:30 AM CST 6:55 PM CST
Moon 3:34 PM CST (11/3) 3:12 AM CST (11/3)
Length of Visible Light 11h 14m
Length of Day
10h 16m
Waxing Gibbous, 87% of the Moon is Illuminated
Nov 3
Waxing Gibbous
Nov 6
Full
Nov 14
Last Quarter
Nov 22
New
Nov 29
First Quarter

Hourly Weather History & Observations

Time (CST) Temp. Windchill Dew Point Humidity Pressure Visibility Wind Dir Wind Speed Gust Speed Precip Events Conditions
12:56 AM 53.1 °F - 46.9 °F 80% 29.78 in 10.0 mi South 9.2 mph - N/A   Clear
1:56 AM 54.0 °F - 48.0 °F 80% 29.76 in 10.0 mi South 8.1 mph - N/A   Clear
2:56 AM 54.0 °F - 48.0 °F 80% 29.75 in 10.0 mi South 8.1 mph - N/A   Partly Cloudy
3:56 AM 55.0 °F - 48.9 °F 80% 29.75 in 10.0 mi South 11.5 mph - N/A   Overcast
4:56 AM 54.0 °F - 48.9 °F 83% 29.76 in 10.0 mi South 13.8 mph - 0.00 in Rain Light Rain
5:56 AM 53.1 °F - 48.9 °F 86% 29.78 in 10.0 mi SSE 3.5 mph - 0.00 in   Overcast
6:56 AM 54.0 °F - 50.0 °F 86% 29.76 in 10.0 mi SSW 4.6 mph - 0.00 in Rain Light Rain
7:56 AM 52.0 °F - 50.0 °F 93% 29.78 in 10.0 mi East 3.5 mph - 0.00 in   Mostly Cloudy
8:56 AM 55.0 °F - 51.1 °F 86% 29.80 in 10.0 mi South 6.9 mph - N/A   Mostly Cloudy
9:56 AM 57.0 °F - 51.1 °F 81% 29.79 in 10.0 mi South 8.1 mph - N/A   Clear
10:26 AM 57.0 °F - 52.0 °F 83% 29.78 in 10.0 mi SSW 4.6 mph - N/A   Mostly Cloudy
10:44 AM 57.0 °F - 50.0 °F 77% 29.78 in 10.0 mi West 8.1 mph - N/A   Overcast
10:56 AM 55.9 °F - 48.9 °F 77% 29.79 in 10.0 mi NW 10.4 mph - N/A   Overcast
11:56 AM 54.0 °F - 44.1 °F 69% 29.80 in 10.0 mi NW 8.1 mph - N/A   Overcast
12:56 PM 53.1 °F - 39.0 °F 59% 29.79 in 10.0 mi NW 12.7 mph - N/A   Overcast
1:56 PM 52.0 °F - 39.0 °F 61% 29.81 in 10.0 mi NW 11.5 mph - N/A   Overcast
2:56 PM 51.1 °F - 39.0 °F 63% 29.82 in 10.0 mi NNW 13.8 mph - N/A   Overcast
3:56 PM 52.0 °F - 39.0 °F 61% 29.85 in 10.0 mi NW 10.4 mph - N/A   Overcast
4:56 PM 50.0 °F - 37.9 °F 63% 29.88 in 10.0 mi NW 23.0 mph 32.2 mph N/A   Overcast
5:56 PM 46.9 °F - 37.0 °F 68% 29.92 in 10.0 mi NW 16.1 mph - N/A   Mostly Cloudy
6:48 PM 46.0 °F 39.3 °F 37.0 °F 71% 29.95 in 10.0 mi NW 16.1 mph 26.5 mph N/A   Overcast
6:56 PM 46.0 °F 37.8 °F 37.9 °F 73% 29.97 in 10.0 mi NW 23.0 mph 29.9 mph N/A   Overcast
7:37 PM 44.1 °F 35.9 °F 37.0 °F 76% 29.97 in 10.0 mi NNW 19.6 mph 27.6 mph N/A   Overcast
7:56 PM 45.0 °F 37.9 °F 37.0 °F 74% 29.99 in 10.0 mi NW 16.1 mph 28.8 mph N/A   Overcast
8:56 PM 44.1 °F 37.7 °F 37.0 °F 76% 30.02 in 10.0 mi NW 12.7 mph - N/A   Overcast
9:56 PM 44.1 °F 38.6 °F 37.9 °F 79% 30.05 in 10.0 mi WNW 10.4 mph - N/A   Overcast
10:56 PM 41.0 °F 35.8 °F 37.0 °F 86% 30.06 in 10.0 mi West 8.1 mph - N/A   Clear
11:56 PM 37.9 °F 32.1 °F 36.0 °F 93% 30.07 in 10.0 mi West 8.1 mph - N/A   Clear